Location: Burland Observatory
(39.4088°N, 105.4217°W)
Time: 17:14:49
(UTC-07:00)

Vanguard 3 - Pass Details

Date: 17 December 2019
Orbit: 507 x 3263 km, 33.4° (Epoch: 24 January)

Event Time Altitude Azimuth Distance (km) Brightness Sun altitude
Rises 14:17:05 0° 261° (W) 5,920 12.2 19.3°
Reaches altitude 10° 14:27:51 10° 225° (SW) 5,702 13.7 18.1°
Maximum altitude 14:29:20 10° 220° (SW) 5,770 14.1 17.9°
Drops below altitude 10° 14:30:52 10° 215° (SW) 5,859 14.2 17.8°
Sets 14:44:13 0° 180° (S) 7,215 12.8 16.2°
